{"data":{"norad_id":57914,"intl_designator":"2023-147B","name":"STARLINK-30483","alt_names":[],"object_type":"PAYLOAD","status":"ACTIVE","operator":null,"country":"US","launch_date":"2023-09-24","launch_site_code":"AFETR","launch_vehicle":null,"mission":null,"orbit_class":"UNKNOWN","rcs_meters":null,"size_class":null,"mass_kg":null,"dimensions":null,"purposes":["comms"],"wikipedia_slug":null,"has_3d_model":false,"image_url":null,"decayed_at":null,"tle_current":{"epoch":"2026-09-20T10:33:38.257632Z","epoch_age_seconds":139770,"freshness":"FRESH","line1":"1 57914U 23147B   26263.44002613  .00000153  00000+0  15094-4 0  9993","line2":"2 57914  43.0040 159.7836 0001182 274.0150  86.0567 15.27577622168099","mean_motion":15.27577622,"eccentricity":0.0001182,"inclination_deg":43.004,"raan_deg":159.7836,"arg_perigee_deg":274.015,"mean_anomaly_deg":86.0567,"bstar":1.5094e-5,"rev_number":16809,"period_min":94.266895459928,"perigee_km":482.24522359817,"apogee_km":483.86720967458,"semimajor_km":6861.1932166364,"source":"CELESTRAK","updated_at":"2026-09-21T09:00:33.740487Z"}}}